{"data":{"norad_id":51649,"epoch":"2026-09-19T13:00:12.477312Z","epoch_age_seconds":108748,"freshness":"FRESH","line1":"1 51649U 22012AD  26262.54181108  .00000000  00000+0 -32377-4 0  9994","line2":"2 51649  87.9201 347.1253 0001758 102.6363 257.4965 13.17651106226314","mean_motion":13.17651106,"eccentricity":0.0001758,"inclination_deg":87.9201,"raan_deg":347.1253,"arg_perigee_deg":102.6363,"mean_anomaly_deg":257.4965,"bstar":-3.2377e-5,"rev_number":22631,"period_min":109.28537861372,"perigee_km":1192.3740619521,"apogee_km":1195.0363216668,"semimajor_km":7571.8421918095,"source":"CELESTRAK","updated_at":"2026-09-20T09:00:44.713209Z"}}